Mount Airy, NC

10:07 AM EST on February 23, 2018 (GMT -0500)
Mount Airy-Surry County

Weather History for KMWK - August, 2013

Change the Weather History Date:

Thursday, August 29, 2013

  Actual Average (KINT) Record (KINT)
Temperature  
Mean Temperature 80 °F -  
Max Temperature 87 °F 81 °F 96 °F (1998)
Min Temperature 72 °F 65 °F 45 °F (1986)
Cooling Degree Days 14    
Growing Degree Days 30 (Base 50)    
Moisture  
Dew Point 71 °F    
Average Humidity 77    
Maximum Humidity 86    
Minimum Humidity 61    
Precipitation  
Precipitation 0.00 in - - ()
Sea Level Pressure  
Sea Level Pressure 29.97 in    
Wind  
Wind Speed 2 mph (ENE)    
Max Wind Speed 8 mph    
Max Gust Speed -    
Visibility 10 miles    
Events Rain    
Averages and records for this station are not official NWS values.
T = Trace of Precipitation, MM = Missing Value Source: NWS Daily Summary

Daily Weather History Graph

Daily Weather History Graph

Search for Another Location

Airport or City:

Trip Planner

Search our weather history database for the weather conditions in past years. The results will help you decide how hot, cold, wet, or windy it might be!

Date:

Astronomy

Aug. 29, 2013 Rise Set
Actual Time 6:51 AM EDT 7:54 PM EDT
Civil Twilight 6:24 AM EDT 8:20 PM EDT
Nautical Twilight 5:53 AM EDT 8:51 PM EDT
Astronomical Twilight 5:20 AM EDT 9:24 PM EDT
Moon 12:46 AM EDT (8/29) 3:16 PM EDT (8/29)
Length of Visible Light 13h 55m
Length of Day
13h 02m
Last Quarter, 38% of the Moon is Illuminated
Aug 29
Last Quarter
Sep 5
New
Sep 12
First Quarter
Sep 19
Full
Sep 26
Last Quarter

Hourly Weather History & Observations

Time (EDT) Temp. Heat Index Dew Point Humidity Pressure Visibility Wind Dir Wind Speed Gust Speed Precip Events Conditions
12:15 AM 75.9 °F - 69.8 °F 81% 29.93 in 7.0 mi Calm Calm - N/A   Clear
12:35 AM 75.2 °F - 69.6 °F 83% 29.93 in 7.0 mi Calm Calm - N/A   Clear
12:55 AM 75.9 °F - 69.3 °F 80% 29.92 in 10.0 mi Calm Calm - N/A   Clear
1:15 AM 75.9 °F - 69.1 °F 79% 29.92 in 10.0 mi Calm Calm - N/A   Clear
1:35 AM 76.3 °F - 68.5 °F 77% 29.92 in 10.0 mi WSW 3.5 mph - N/A   Clear
1:55 AM 77.4 °F - 68.5 °F 74% 29.91 in 10.0 mi Calm Calm - N/A   Mostly Cloudy
2:15 AM 77.9 °F - 68.9 °F 74% 29.91 in 10.0 mi Calm Calm - N/A   Scattered Clouds
2:35 AM 77.0 °F - 69.1 °F 76% 29.91 in 7.0 mi Calm Calm - N/A   Scattered Clouds
2:55 AM 74.8 °F - 68.9 °F 82% 29.92 in 10.0 mi Calm Calm - N/A   Scattered Clouds
3:15 AM 73.9 °F - 68.9 °F 84% 29.91 in 10.0 mi Calm Calm - N/A   Clear
3:35 AM 73.2 °F - 68.4 °F 85% 29.91 in 10.0 mi Calm Calm - N/A   Clear
3:55 AM 73.4 °F - 68.7 °F 85% 29.91 in 7.0 mi Calm Calm - N/A   Clear
4:15 AM 73.2 °F - 68.5 °F 85% 29.92 in 7.0 mi Calm Calm - N/A   Clear
4:55 AM 73.9 °F - 68.9 °F 84% 29.92 in 10.0 mi Calm Calm - N/A   Clear
5:15 AM 73.0 °F - 68.0 °F 84% 29.93 in 10.0 mi Calm Calm - N/A   Clear
5:55 AM 75.6 °F - 69.3 °F 81% 29.93 in 10.0 mi NW 3.5 mph - N/A   Clear
6:15 AM 74.5 °F - 68.9 °F 83% 29.93 in 10.0 mi Calm Calm - N/A   Clear
6:55 AM 72.5 °F - 68.2 °F 86% 29.94 in 7.0 mi Calm Calm - N/A   Scattered Clouds
7:15 AM 75.6 °F - 69.8 °F 82% 29.95 in 10.0 mi NW 3.5 mph - N/A   Mostly Cloudy
7:55 AM 75.0 °F - 70.2 °F 85% 29.96 in 7.0 mi Calm Calm - N/A   Overcast
8:15 AM 75.2 °F - 70.2 °F 84% 29.96 in 7.0 mi Calm Calm - N/A   Scattered Clouds
8:55 AM 80.1 °F 83.7 °F 71.4 °F 75% 29.97 in 10.0 mi NNW 3.5 mph - N/A   Mostly Cloudy
9:15 AM 81.5 °F 85.7 °F 71.2 °F 71% 29.97 in 10.0 mi North 4.6 mph - N/A   Mostly Cloudy
9:55 AM 82.8 °F 88.2 °F 72.5 °F 71% 29.97 in 10.0 mi NNE 4.6 mph - N/A   Overcast
10:15 AM 84.7 °F 91.0 °F 72.7 °F 67% 29.98 in 10.0 mi NNE 6.9 mph - N/A   Overcast
10:55 AM 82.4 °F 87.4 °F 72.0 °F 71% 30.00 in 10.0 mi NNE 3.5 mph - N/A   Overcast
11:15 AM 82.8 °F 87.7 °F 71.8 °F 69% 30.00 in 10.0 mi North 4.6 mph - N/A   Overcast
11:55 AM 84.4 °F 90.0 °F 71.8 °F 66% 29.99 in 10.0 mi Calm Calm - N/A   Overcast
12:15 PM 83.8 °F 89.5 °F 72.1 °F 68% 29.99 in 10.0 mi NNE 3.5 mph - N/A   Overcast
1:15 PM 86.0 °F 94.6 °F 74.7 °F 69% 29.98 in 10.0 mi ENE 8.1 mph - N/A   Scattered Clouds
1:55 PM 86.9 °F 95.4 °F 74.1 °F 66% 29.99 in 10.0 mi ENE 5.8 mph - N/A   Clear
2:15 PM 87.1 °F 94.5 °F 73.2 °F 63% 29.98 in 10.0 mi East 5.8 mph - N/A   Scattered Clouds
2:55 PM 87.4 °F 95.3 °F 73.4 °F 63% 29.97 in 10.0 mi ENE 8.1 mph - N/A   Scattered Clouds
3:15 PM 87.6 °F 94.8 °F 72.9 °F 61% 29.97 in 10.0 mi East 8.1 mph - N/A   Scattered Clouds
3:55 PM 85.1 °F 90.4 °F 71.4 °F 63% 29.97 in 10.0 mi ENE 8.1 mph - N/A   Mostly Cloudy
4:15 PM 86.9 °F 94.1 °F 73.0 °F 63% 29.97 in 10.0 mi East 4.6 mph - N/A   Scattered Clouds
4:55 PM 85.3 °F 91.8 °F 72.7 °F 66% 29.97 in 10.0 mi East 8.1 mph - N/A   Mostly Cloudy
5:15 PM 83.3 °F 89.0 °F 72.5 °F 70% 29.97 in 10.0 mi East 3.5 mph - N/A   Overcast
5:55 PM 82.6 °F 89.1 °F 74.3 °F 76% 29.98 in 10.0 mi East 4.6 mph - N/A Rain Rain
6:15 PM 81.5 °F 86.7 °F 73.4 °F 76% 29.97 in 10.0 mi East 3.5 mph - N/A   Overcast
6:55 PM 81.5 °F 86.9 °F 73.6 °F 77% 29.98 in 10.0 mi East 6.9 mph - N/A   Mostly Cloudy
7:15 PM 80.6 °F 85.2 °F 73.2 °F 78% 29.99 in 10.0 mi East 5.8 mph - N/A   Overcast
7:35 PM 80.1 °F 84.1 °F 72.5 °F 78% 30.00 in 10.0 mi East 5.8 mph - N/A   Overcast
7:55 PM 79.5 °F - 72.5 °F 79% 30.00 in 10.0 mi East 8.1 mph - N/A   Mostly Cloudy
8:15 PM 78.8 °F - 72.1 °F 80% 30.01 in 10.0 mi East 8.1 mph - N/A   Scattered Clouds
8:35 PM 78.1 °F - 72.0 °F 81% 30.02 in 10.0 mi East 5.8 mph - N/A   Clear
8:55 PM 77.5 °F - 71.6 °F 82% 30.02 in 10.0 mi East 6.9 mph - N/A   Scattered Clouds
9:15 PM 77.5 °F - 71.6 °F 82% 30.04 in 10.0 mi East 4.6 mph - N/A   Overcast
9:35 PM 77.4 °F - 71.6 °F 82% 30.04 in 10.0 mi East 3.5 mph - N/A   Mostly Cloudy
9:55 PM 76.8 °F - 71.4 °F 83% 30.04 in 10.0 mi ENE 3.5 mph - N/A   Scattered Clouds
10:15 PM 77.0 °F - 71.4 °F 83% 30.05 in 10.0 mi East 5.8 mph - N/A   Mostly Cloudy
10:35 PM 76.5 °F - 70.7 °F 82% 30.06 in 10.0 mi East 6.9 mph - N/A   Mostly Cloudy
10:55 PM 76.1 °F - 70.2 °F 82% 30.05 in 10.0 mi ENE 6.9 mph - N/A   Overcast
11:15 PM 75.2 °F - 70.0 °F 84% 30.06 in 10.0 mi ENE 4.6 mph - N/A   Scattered Clouds
11:35 PM 74.8 °F - 70.0 °F 85% 30.06 in 10.0 mi ENE 4.6 mph - N/A   Mostly Cloudy
11:55 PM 74.8 °F - 69.8 °F 84% 30.07 in 10.0 mi NE 6.9 mph - N/A   Overcast